Powrót do katalogu

COSMOS 2251 DEB

AktywnyVLEO
NORAD 35602·DEBRIS·🇷🇺 Russia

Wystrzelony Jun 16, 1993 z Plesetsk Cosmodrome

Loading…

Następne Przeloty (najbliższe 24 godziny)

TLE

Starzejące sięSource: Space-Track

Epoka: Sep 13, 2026, 09:40 UTC

1 35602U 93036AMV 26256.40333277  .00015261  00000-0  27901-3 0  9994
2 35602  73.9904 305.7780 0070418 297.2624  74.6192 15.46573880943239

Śledź COSMOS 2251 DEB w czasie rzeczywistym z AllMySat

Download on the App Store